Baltimore Martin, MD

10:34 PM EDT on September 23, 2017 (GMT -0400)
Martin State

Weather History for KMTN - April, 2013

Change the Weather History Date:

Wednesday, April 24, 2013

  Actual Average Record
Temperature  
Mean Temperature 57 °F -  
Max Temperature 68 °F 64 °F 84 °F (2001)
Min Temperature 46 °F 45 °F 37 °F (1999)
Degree Days  
Heating Degree Days 8    
Growing Degree Days 7 (Base 50)    
Moisture  
Dew Point 51 °F    
Average Humidity 84    
Maximum Humidity 100    
Minimum Humidity 68    
Precipitation  
Precipitation 0.00 in - - ()
Sea Level Pressure  
Sea Level Pressure 30.03 in    
Wind  
Wind Speed 5 mph (SSE)    
Max Wind Speed 21 mph    
Max Gust Speed 26 mph    
Visibility 9 miles    
Events      
Averages and records for this station are not official NWS values.
T = Trace of Precipitation, MM = Missing Value Source: NWS Daily Summary

Daily Weather History Graph

Daily Weather History Graph

Search for Another Location

Airport or City:

Trip Planner

Search our weather history database for the weather conditions in past years. The results will help you decide how hot, cold, wet, or windy it might be!

Date:

Astronomy

Apr. 24, 2013 Rise Set
Actual Time 6:15 AM EDT 7:52 PM EDT
Civil Twilight 5:47 AM EDT 8:20 PM EDT
Nautical Twilight 5:13 AM EDT 8:55 PM EDT
Astronomical Twilight 4:36 AM EDT 9:31 PM EDT
Moon 6:53 PM EDT 5:17 AM EDT
Length of Visible Light 14h 33m
Length of Day
13h 36m
Waxing Gibbous, 98% of the Moon is Illuminated
Apr 24
Waxing Gibbous
Apr 25
Full
May 2
Last Quarter
May 9
New
May 18
First Quarter

Hourly Weather History & Observations

Time (EDT) Temp. Windchill Dew Point Humidity Pressure Visibility Wind Dir Wind Speed Gust Speed Precip Events Conditions
12:06 AM 50.0 °F - 44.6 °F 82% 30.16 in 10.0 mi East 3.5 mph - N/A   Clear
12:27 AM 48.2 °F - 44.6 °F 87% 30.15 in 10.0 mi Calm Calm - N/A   Clear
12:45 AM 48.2 °F - 44.6 °F 87% 30.15 in 10.0 mi Calm Calm - N/A   Clear
1:06 AM 48.2 °F - 44.6 °F 87% 30.14 in 10.0 mi East 3.5 mph - N/A   Clear
1:27 AM 48.2 °F - 44.6 °F 87% 30.14 in 10.0 mi East 3.5 mph - N/A   Clear
1:45 AM 46.4 °F 45.2 °F 44.6 °F 93% 30.15 in 10.0 mi ESE 3.5 mph - N/A   Clear
2:06 AM 46.4 °F 44.3 °F 44.6 °F 93% 30.13 in 7.0 mi ENE 4.6 mph - N/A   Clear
2:27 AM 46.4 °F - 44.6 °F 93% 30.13 in 7.0 mi Calm Calm - N/A   Scattered Clouds
2:45 AM 46.4 °F - 46.4 °F 100% 30.12 in 7.0 mi Calm Calm - N/A   Scattered Clouds
3:06 AM 46.4 °F 45.2 °F 46.4 °F 100% 30.12 in 7.0 mi ESE 3.5 mph - N/A   Mostly Cloudy
3:27 AM 50.0 °F - 46.4 °F 87% 30.12 in 7.0 mi South 3.5 mph - N/A   Overcast
3:45 AM 48.2 °F - 46.4 °F 93% 30.12 in 7.0 mi Calm Calm - N/A   Mostly Cloudy
4:06 AM 48.2 °F - 46.4 °F 93% 30.12 in 7.0 mi South 3.5 mph - N/A   Scattered Clouds
4:27 AM 48.2 °F - 46.4 °F 93% 30.12 in 7.0 mi Calm Calm - N/A   Scattered Clouds
4:45 AM 48.2 °F - 46.4 °F 93% 30.11 in 7.0 mi SSE 3.5 mph - N/A   Mostly Cloudy
5:06 AM 50.0 °F - 46.4 °F 87% 30.11 in 7.0 mi South 4.6 mph - N/A   Overcast
5:27 AM 50.0 °F - 46.4 °F 87% 30.11 in 7.0 mi South 4.6 mph - N/A   Overcast
5:36 AM 50.0 °F - 46.4 °F 87% 30.11 in 7.0 mi South 4.6 mph - N/A   Overcast
5:50 AM 50.0 °F - 48.2 °F 94% 30.11 in 7.0 mi South 4.6 mph - N/A   Overcast
6:50 AM 50.0 °F - 48.2 °F 94% 30.10 in 5.0 mi SSW 3.5 mph - N/A   Mostly Cloudy
7:15 AM 50.0 °F - 48.2 °F 94% 30.10 in 5.0 mi Calm Calm - N/A   Mostly Cloudy
7:45 AM 53.6 °F - 50.0 °F 88% 30.10 in 7.0 mi Calm Calm - N/A   Scattered Clouds
8:45 AM 57.2 °F - 50.0 °F 77% 30.08 in 10.0 mi SSE 3.5 mph - N/A   Scattered Clouds
8:55 AM 57.2 °F - 51.8 °F 82% 30.08 in 10.0 mi SSE 9.2 mph - N/A   Scattered Clouds
9:45 AM 59.0 °F - 53.6 °F 82% 30.06 in 10.0 mi SE 12.7 mph - N/A   Partly Cloudy
10:45 AM 59.0 °F - 53.6 °F 82% 30.04 in 10.0 mi SSE 15.0 mph - N/A   Scattered Clouds
11:54 AM 62.6 °F - 55.4 °F 77% 30.02 in 10.0 mi SE 13.8 mph - N/A   Scattered Clouds
12:45 PM 64.4 °F - 55.4 °F 73% 29.99 in 10.0 mi SSE 16.1 mph - N/A   Scattered Clouds
1:50 PM 66.2 °F - 57.2 °F 73% 29.94 in 10.0 mi SE 13.8 mph - N/A   Scattered Clouds
2:55 PM 68.0 °F - 59.0 °F 73% 29.91 in 10.0 mi SE 16.1 mph - N/A   Scattered Clouds
3:55 PM 66.2 °F - 59.0 °F 78% 29.89 in 10.0 mi SE 13.8 mph - N/A   Scattered Clouds
4:45 PM 66.2 °F - 59.0 °F 78% 29.87 in 10.0 mi SE 18.4 mph 26.5 mph N/A   Scattered Clouds
5:45 PM 64.4 °F - 59.0 °F 83% 29.84 in 10.0 mi SE 12.7 mph 20.7 mph N/A   Mostly Cloudy
6:45 PM 66.2 °F - 57.2 °F 73% 29.81 in 10.0 mi SSE 20.7 mph - N/A   Mostly Cloudy
7:45 PM 66.2 °F - 57.2 °F 73% 29.84 in 10.0 mi South 11.5 mph 19.6 mph N/A   Scattered Clouds
8:55 PM 64.4 °F - 57.2 °F 77% 29.87 in 10.0 mi SSE 5.8 mph - N/A   Scattered Clouds
9:50 PM 64.4 °F - 57.2 °F 77% 29.89 in 10.0 mi NW 6.9 mph - N/A   Mostly Cloudy
10:09 PM 66.2 °F - 55.4 °F 68% 29.90 in 10.0 mi SW 6.9 mph - N/A   Mostly Cloudy
10:48 PM 64.4 °F - 55.4 °F 73% 29.90 in 10.0 mi Calm Calm - N/A   Scattered Clouds
11:09 PM 62.6 °F - 55.4 °F 77% 29.91 in 10.0 mi Calm Calm - N/A   Scattered Clouds
11:30 PM 62.6 °F - 55.4 °F 77% 29.91 in 10.0 mi Calm Calm - N/A   Mostly Cloudy
11:48 PM 62.6 °F - 57.2 °F 82% 29.93 in 10.0 mi West 8.1 mph - N/A   Overcast